Regional Weather Roundup
Issued by NWS

Home | Current Version | Previous Version | Graphics & Text | Print | Product List | Glossary On
Versions: 1 2 3 4 5 6 7 8 9 10 11 12 13 14 15 16 17 18 19 20 21 22 23 24 25 26 27 28 29 30 31 32 33 34 35 36 37 38 39 40 41 42 43 44 45 46 47 48 49 50
045
ASUS43 KBIS 290010
RWRND

NORTH DAKOTA REGIONAL WEATHER ROUNDUP
NATIONAL WEATHER SERVICE BISMARCK ND
700 PM CDT SUN AUG 28 2016

NOTE: "FAIR" INDICATES FEW OR NO CLOUDS BELOW 12,000 FEET WITH NO
SIGNIFICANT WEATHER AND/OR OBSTRUCTIONS TO VISIBILITY.


NDZ001>003-009>011-017-290100-
NORTHWEST NORTH DAKOTA

CITY           SKY/WX    TMP DP  RH WIND       PRES   REMARKS
WILLISTON      SUNNY     84  50  30 N16       29.99R
6HR MIN TEMP:  80; 6HR MAX TEMP:  91;

MINOT          MOSUNNY   86  57  37 N13       29.90R
MINOT AFB      CLOUDY    86  56  36 N15       29.89R
$$

NDZ018>021-031>035-040>046-290100-
SOUTHWEST NORTH DAKOTA

CITY           SKY/WX    TMP DP  RH WIND       PRES   REMARKS
BISMARCK       SUNNY     87  63  44 SE7       29.90S
6HR MIN TEMP:  79; 6HR MAX TEMP:  90;

DICKINSON      SUNNY     89  37  16 NW15      29.95R
GARRISON         N/A     88  58  36 S6        29.90R
6HR MIN TEMP:  83; 6HR MAX TEMP:  92;

HETTINGER ARPT SUNNY     92  42  17 NW8       29.97R
$$

NDZ004>008-012>016-024-026-027-054-290100-
NORTHEAST NORTH DAKOTA

CITY           SKY/WX    TMP DP  RH WIND       PRES   REMARKS
GRAND FORKS    MOSUNNY   82  70  66 SE9       29.91F
GRND FRKS AFB  SUNNY     82  71  68 S9        29.92S
DEVILS LAKE    SUNNY     79  71  76 SE9       29.93S
$$

NDZ022-023-025-028>030-036>039-047>053-290100-
SOUTHEAST NORTH DAKOTA

CITY           SKY/WX    TMP DP  RH WIND       PRES   REMARKS
FARGO          SUNNY     87  72  60 S14       29.91F HX  93
6HR MIN TEMP:  80; 6HR MAX TEMP:  88;

JAMESTOWN      SUNNY     85  73  67 SE6       29.91S HX  91
$$





USA.gov is the U.S. government's official web portal to all federal, state and local government web resources and services.